SCP
1 1 1 1 1 1 1 1 1 1 1 2 2 2 1 1 1 1 1 1 1 1 1 1 1 1 1 1 1 1 1 1 1 1 1 1 1 1 1 1 1 1 1
1 1 1 1 1 1 1 1 1 1 1 1 2 2 1 1 1 1 1 1 1 1 1 1 1 1 1 1 1 1 1 1 1 1 1 1 1 1 1 1 1 1 1
2 2 1 1 1 1 1 1 1 1 1 1 1 1 1 1 1 1 1 1 1 1 1 1 1 1 1 1 1 1 1 1 1 1 1 1 1 1 1 1 1 1 1
2 2 2 1 1 1 1 1 1 0 0 0 0 1 1 1 1 1 1 1 0 1 1 1 1 1 1 1 1 1 1 1 1 1 1 1 1 1 1 1 1 1 1
2 2 2 2 1 1 1 1 1 0 0 0 0 1 1 1 1 1 1 1 0 0 1 1 1 1 1 1 1 1 1 1 1 1 1 1 1 1 1 1 1 1 1
3 2 2 2 1 1 1 1 1 1 1 1 1 1 1 1 1 1 1 1 0 1 1 1 1 1 1 1 1 1 1 2 1 1 1 1 1 1 1 1 1 1 1
2 2 2 2 2 2 1 1 1 1 1 1 1 1 0 0 0 0 0 0 0 1 1 1 1 1 1 1 1 1 1 2 1 1 1 1 1 1 1 1 1 1 1
2 2 2 2 2 2 2 1 1 1 1 1 1 1 0 0 0 0 0 0 0 1 1 1 1 1 1 1 1 1 1 1 1 1 1 1 1 1 1 1 1 1 1
2 2 3 3 3 2 2 1 1 1 1 1 1 0 0 0 0 0 0 0 0 0 1 1 0 0 1 1 1 1 1 1 1 1 1 1 1 1 1 1 1 1 1
2 2 2 3 3 2 2 2 2 2 2 2 1 0 0 0 0 0 0 0 0 0 0 0 0 0 1 1 1 1 1 1 1 1 1 1 1 1 1 1 1 1 1
2 2 3 4 4 3 2 2 3 4 4 3 2 1 0 0 0 0 0 0 0 0 0 0 0 0 1 1 1 1 1 1 1 1 1 1 1 2 2 2 2 2 2
3 4 4 4 4 4 3 3 3 4 5 4 2 1 1 0 0 0 0 0 0 0 0 0 0 0 1 1 1 1 1 1 0 1 1 1 1 2 2 2 2 2 2
4 5 5 5 5 4 4 4 3 4 4 3 2 1 1 1 0 0 0 0 0 0 0 0 0 1 1 1 1 1 1 1 0 0 0 1 1 2 2 2 2 2 2
4 4 4 4 4 4 4 3 3 3 3 3 2 1 1 1 1 1 1 1 1 0 0 0 0 1 1 0 0 1 1 1 0 0 0 0 1 1 1 2 1 1 1
3 3 3 3 3 3 3 3 3 3 3 3 3 2 2 1 1 1 2 2 2 1 0 0 1 1 1 0 0 0 0 0 0 0 0 0 0 0 1 1 1 1 1
3 3 3 3 3 3 3 3 3 4 4 3 3 2 2 2 2 2 2 3 2 2 1 0 0 0 0 0 0 0 0 0 0 0 0 0 0 0 0 0 0 0 0
4 4 3 3 3 3 3 3 3 4 5 3 2 2 2 2 2 2 2 3 3 2 1 0 0 0 0 0 0 0 0 0 0 0 0 0 0 0 0 0 0 0 0
5 5 4 3 2 2 3 3 3 3 3 2 1 1 1 1 1 1 1 2 3 3 2 1 0 0 1 1 1 1 1 1 1 1 1 0 0 0 0 0 0 0 0
5 5 4 3 2 2 2 2 2 2 1 1 1 1 1 1 1 1 1 1 2 2 2 2 1 1 1 1 1 2 2 2 2 2 1 1 1 0 0 0 0 0 0
5 4 3 2 2 2 2 2 2 2 1 1 1 1 1 1 1 1 1 2 2 2 2 2 2 2 2 2 2 2 2 2 2 2 2 2 1 0 0 0 0 0 0
3 3 2 2 2 2 2 2 3 2 2 1 1 1 1 1 1 1 1 1 2 2 2 3 3 2 2 2 2 2 2 2 2 2 2 2 1 0 0 0 0 0 0
2 1 1 1 2 2 2 2 3 3 3 2 2 1 1 1 1 1 1 1 1 1 1 2 2 2 2 2 2 2 2 2 2 2 2 2 1 0 0 0 0 0 0
1 1 1 1 2 1 1 1 2 3 3 3 3 2 1 1 1 1 1 1 1 1 1 1 1 1 1 2 2 1 2 2 2 2 2 2 2 1 1 0 0 0 0
2 2 2 2 2 1 1 1 1 1 3 3 3 3 2 2 1 1 1 1 1 1 1 0 1 1 1 1 1 1 1 2 2 2 2 2 3 2 1 0 0 0 0
2 2 2 2 2 2 1 1 0 1 2 3 3 3 2 2 1 1 1 1 1 0 0 0 0 0 0 0 0 1 1 1 2 2 2 3 3 3 2 1 0 0 0
2 2 2 2 3 2 1 1 0 1 1 2 3 3 2 2 1 1 1 1 0 0 0 0 0 0 0 0 0 0 0 1 1 2 2 3 3 2 1 0 0 0 0
Wind_Speed
2 2 1 1 2 2 2 2 1 1 1 1 1 2 2 3 3 2 2 7 8 8 9 10 10 10 10 9 9 9 8 8 9 9 8 8 9 8 8 8 8 8 8
3 3 2 2 1 2 2 2 2 1 1 1 1 2 2 3 3 3 3 4 7 7 8 9 10 10 10 10 10 10 9 9 9 9 9 9 9 9 9 9 8 8 8
4 3 2 2 1 2 2 1 1 1 1 1 1 2 2 2 3 3 3 3 3 6 8 9 10 10 10 10 10 10 10 9 9 9 9 9 9 10 10 9 9 9 8
4 3 2 2 2 2 2 2 1 1 0 1 1 1 1 1 3 3 2 3 2 3 5 8 9 10 10 10 10 10 10 10 9 9 10 10 10 10 10 10 10 9 9
4 3 2 1 2 2 1 2 1 1 1 0 0 1 1 1 2 2 2 3 3 3 2 5 8 9 10 10 10 11 11 11 10 10 10 11 11 11 11 11 10 10 10
3 3 2 2 2 2 1 1 1 1 1 1 0 0 0 1 1 2 2 2 2 3 3 3 3 5 8 8 8 10 11 12 11 10 10 11 12 12 12 11 11 11 11
4 3 2 2 2 2 2 2 1 1 0 1 2 2 2 1 0 1 1 1 2 3 3 3 2 2 3 6 7 9 10 11 11 10 10 10 10 11 12 12 12 11 11
3 3 3 2 2 2 2 2 2 1 0 1 2 2 2 3 2 1 1 2 2 1 2 3 2 2 2 2 3 6 7 8 8 9 9 9 10 11 12 12 12 12 11
3 3 3 3 2 2 2 1 2 2 1 0 1 3 2 2 2 2 1 1 1 1 2 2 3 3 3 2 2 4 5 6 7 8 6 6 8 10 11 12 13 12 12
3 3 3 3 3 2 2 2 2 2 2 1 0 0 2 3 2 1 2 2 1 2 2 2 2 3 3 2 3 4 5 5 5 6 6 6 6 8 9 9 11 12 12
2 3 3 3 3 2 2 2 2 2 2 2 1 1 1 0 1 2 1 2 2 2 2 2 2 2 3 3 3 4 5 5 5 6 6 7 7 8 8 9 9 10 11
1 2 3 3 3 2 2 2 2 2 2 2 2 2 2 2 2 2 2 1 1 2 2 1 1 2 2 2 4 4 5 4 5 5 5 5 6 6 7 8 9 10 10
2 3 2 2 2 2 2 2 2 1 2 2 2 2 2 2 2 2 2 1 1 2 2 1 2 1 2 2 2 4 4 4 4 4 4 5 5 6 6 7 8 8 9
3 3 3 3 3 3 2 2 1 1 1 1 2 2 1 1 2 2 3 2 0 2 2 3 2 1 1 1 2 3 2 4 5 5 4 4 5 5 5 6 7 7 7
3 3 3 3 2 2 2 2 1 1 1 1 1 1 1 1 1 1 2 3 3 1 2 3 2 2 1 0 1 1 1 3 4 4 4 5 5 5 5 5 5 5 6
2 2 2 2 2 2 2 2 1 1 1 1 1 1 1 0 0 1 1 1 2 3 2 2 2 2 1 0 1 1 1 2 3 4 4 4 4 4 4 4 4 4 5
2 3 3 3 2 2 2 2 2 2 1 0 0 1 0 0 0 0 1 1 1 2 2 2 1 1 0 0 1 1 1 1 1 3 4 4 4 5 4 4 4 4 4
3 3 3 3 3 3 3 3 2 2 2 1 0 1 0 1 1 1 1 1 1 2 2 1 1 1 1 1 1 1 1 1 1 2 3 3 4 4 4 5 5 5 5
2 2 3 3 3 2 2 3 3 2 2 2 1 1 1 1 1 0 1 0 0 1 1 2 1 1 1 1 1 1 1 2 1 1 2 2 2 2 3 3 4 4 5
2 2 2 3 3 2 2 2 3 2 2 1 1 1 1 2 2 1 1 0 0 1 1 1 0 1 1 1 1 1 2 2 2 2 2 1 1 2 2 2 3 4 5
2 2 2 2 2 2 2 3 3 3 2 1 1 1 1 2 2 2 2 2 1 1 1 1 0 0 1 1 1 1 0 1 2 1 1 1 1 1 1 2 3 5 5
2 2 1 1 1 1 2 4 4 2 2 2 2 1 1 1 1 1 2 3 3 3 3 2 1 1 2 2 1 1 0 1 2 1 1 2 1 1 2 2 3 4 5
2 2 2 2 1 2 2 3 4 3 3 3 3 2 2 1 1 1 1 1 1 3 5 5 4 3 3 3 2 1 1 1 2 2 0 2 1 2 2 3 5 5 5
2 2 2 2 2 1 2 2 3 3 2 2 3 3 2 1 2 1 1 1 1 2 3 4 4 4 4 4 4 3 2 1 2 1 1 1 2 2 3 2 4 5 5
2 2 2 3 2 2 2 2 2 2 1 1 2 2 3 3 3 2 1 1 1 2 2 2 3 3 3 3 3 1 0 1 1 2 1 1 2 2 2 2 3 4 4
2 2 2 2 3 2 2 2 3 2 1 1 1 1 3 4 4 3 3 2 2 3 1 1 1 1 1 2 3 3 3 2 2 2 2 1 1 1 2 2 2 2 2
Wind_Direction
155 158 169 160 152 145 154 166 174 177 179 173 171 171 168 162 165 169 185 185 189 191 192 194 195 194 192 191 192 191 192 190 190 189 188 187 186 187 187 189 186 184 183
151 153 157 158 156 161 169 171 179 170 157 121 125 152 161 164 170 177 189 194 196 195 199 201 200 198 198 198 198 197 198 199 199 198 196 195 193 191 192 194 192 191 187
146 150 152 157 161 157 150 135 130 116 137 128 147 171 172 173 169 189 188 196 200 204 206 204 204 202 201 201 202 204 205 206 206 205 203 201 200 198 199 198 195 191 189
147 144 146 165 166 150 145 144 138 118 113 115 158 184 183 180 182 193 194 203 205 211 213 209 206 203 206 208 210 212 212 211 211 211 209 209 208 204 202 200 199 194 193
148 141 147 167 155 143 149 165 137 145 157 169 213 195 200 189 196 202 203 213 216 214 209 211 211 208 211 215 220 221 219 217 216 216 215 215 213 209 206 201 198 197 198
136 134 138 140 137 131 133 130 136 132 157 183 173 16 296 227 181 193 208 211 213 218 209 212 214 219 219 223 229 229 226 220 219 220 222 222 216 210 203 200 199 199 201
143 138 143 137 134 141 157 148 136 127 78 106 76 13 346 334 251 205 196 188 215 217 194 204 211 215 229 233 237 233 228 222 220 222 226 222 214 206 202 203 202 203 203
150 151 144 145 147 138 124 121 123 122 239 123 122 92 5 344 329 261 218 209 220 202 193 199 198 206 223 229 238 231 227 223 224 228 228 222 212 207 202 204 205 206 206
151 146 151 147 148 143 149 152 144 138 166 309 127 136 141 231 299 319 285 232 213 203 219 209 199 207 218 222 238 233 225 230 233 234 230 219 208 199 201 206 207 207 209
157 156 150 150 154 153 156 169 152 147 142 185 298 159 163 166 167 298 322 309 249 220 227 225 209 210 215 220 218 213 218 225 232 231 225 215 200 197 202 205 209 209 212
167 163 159 155 156 160 165 160 151 150 159 172 184 176 100 74 146 158 270 307 315 273 242 227 217 217 217 213 224 225 223 227 228 231 231 224 214 208 208 210 213 215 216
181 181 162 160 165 169 175 178 172 167 177 164 165 154 161 172 190 169 194 250 278 286 277 248 222 222 216 209 228 226 218 223 228 230 229 220 216 219 218 218 220 222 221
188 200 176 168 172 180 180 171 161 186 183 167 177 189 187 197 179 161 160 203 265 299 316 298 251 226 222 204 229 232 222 225 228 224 224 223 223 224 226 227 228 230 228
190 186 173 168 169 177 173 158 159 184 172 179 182 180 184 212 178 169 165 154 118 329 323 290 306 279 265 206 231 225 223 220 220 218 221 225 224 222 226 230 230 232 230
180 169 164 167 174 182 175 158 167 185 155 172 174 159 169 231 179 168 157 156 155 184 277 281 299 305 299 259 267 246 229 224 222 223 227 229 228 226 228 228 226 223 221
163 162 165 162 174 181 170 155 165 159 139 172 171 139 151 224 143 120 145 148 155 166 217 264 259 278 286 358 337 269 245 241 232 231 228 227 225 225 227 232 229 221 219
158 166 173 166 177 192 181 160 168 148 146 145 123 138 213 177 108 99 125 131 143 153 186 269 277 301 342 352 351 346 326 256 247 233 229 225 222 224 227 229 226 218 213
180 176 174 174 186 183 171 162 171 156 148 152 170 107 2 58 58 34 78 117 149 159 164 217 288 325 326 280 324 351 0 327 271 250 240 232 232 235 233 230 227 223 217
183 177 167 171 180 177 168 173 174 169 168 176 173 157 177 119 82 47 61 44 201 149 151 163 249 303 320 334 9 348 355 340 321 315 268 266 268 261 243 231 229 230 227
170 173 175 174 175 175 174 175 166 164 170 180 181 170 176 165 177 178 158 181 161 123 118 132 159 326 324 327 46 7 348 336 333 351 4 357 329 299 269 253 247 244 237
165 172 163 166 173 179 192 171 162 166 171 181 194 193 182 168 178 189 194 197 168 152 144 145 163 23 309 332 286 273 318 323 327 349 4 347 350 339 299 261 248 245 240
155 146 146 165 172 205 181 171 165 166 174 178 194 214 211 187 191 199 216 201 185 180 183 176 191 208 240 240 242 228 182 11 314 307 13 320 0 302 292 272 257 246 244
172 158 177 170 187 210 185 171 174 169 179 184 190 203 223 222 212 204 266 271 234 220 195 185 195 213 213 215 200 231 235 231 249 256 143 303 316 294 281 274 263 249 241
184 190 201 186 180 207 175 165 175 174 180 193 194 195 194 222 239 210 220 272 263 254 225 202 201 212 212 208 200 204 208 257 290 286 151 254 286 282 299 298 276 254 245
190 205 197 185 179 206 188 168 151 151 170 207 209 203 196 205 229 208 179 215 272 288 274 238 218 210 208 216 197 149 176 113 296 291 260 189 259 289 302 300 299 277 254
196 191 194 197 187 201 210 183 152 147 164 221 250 234 222 222 228 212 193 193 225 258 277 335 343 315 235 223 203 189 188 185 218 267 252 182 250 282 308 295 298 305 285